RH
11 10 9 9 9 9 9 9 10 10 10 10 11 11 11 12 12 13 13 13 13 12 13 13 12 11 9 8 8 8 8 8 8 7 7 6 6 6 6 6 6 6 6 6 6 6 7 8 8 8 8 8 9 9 9 9 8 9 9 9 8 8 8 9 9 9 13 16 14 14 15 13 15 21 26 24 27 28 24 29 28 22 20 17 16 16 16 17
8 7 6 6 6 6 6 6 7 7 7 8 8 9 9 9 10 11 12 13 13 13 13 12 11 10 8 7 7 7 8 8 8 7 7 6 6 6 6 6 6 6 6 6 6 6 7 8 8 9 9 8 9 9 9 9 8 9 9 9 8 8 8 8 9 10 13 15 14 14 14 14 13 17 24 22 21 26 27 25 22 19 17 14 15 15 15 16
6 6 6 5 5 5 5 5 4 4 5 5 5 6 6 7 8 8 9 10 11 11 10 10 9 8 7 7 7 7 7 8 8 7 6 6 6 6 6 6 6 6 6 6 6 6 7 8 9 9 9 9 9 9 10 9 9 9 8 8 8 9 9 9 9 11 13 15 15 14 13 14 13 16 22 19 20 26 30 29 23 19 16 13 14 14 14 15
6 6 6 6 5 5 5 4 4 4 3 3 4 4 5 5 6 6 6 7 7 7 7 7 7 7 7 7 7 7 8 8 7 7 6 6 6 6 6 6 6 6 6 6 6 6 6 8 9 9 10 10 9 9 10 10 10 9 8 8 8 8 9 9 10 12 14 16 15 14 13 14 13 17 19 17 19 21 22 25 25 22 17 14 14 13 15 19
6 6 6 6 5 5 5 5 4 4 4 3 3 3 4 4 5 5 5 5 5 6 6 6 6 7 7 7 8 8 8 8 10 11 9 9 9 8 8 7 7 6 6 6 6 6 6 7 8 9 10 10 10 10 10 11 10 10 9 8 9 8 8 8 10 12 13 15 16 14 13 14 13 15 15 15 16 15 14 16 18 19 16 14 13 15 16 21
6 6 6 6 6 6 5 5 4 4 4 4 3 3 4 5 5 6 5 6 6 6 7 7 7 7 8 9 9 10 8 10 17 19 17 18 17 16 15 13 10 8 7 6 6 7 6 7 8 9 10 10 11 10 11 11 10 11 10 9 9 9 8 9 10 13 14 13 15 14 13 13 13 13 14 14 13 13 13 13 13 14 14 13 13 16 17 21
7 6 6 6 6 6 5 5 4 4 4 4 4 3 4 5 6 6 7 7 7 8 8 8 8 9 10 10 10 10 8 9 14 18 21 23 23 24 24 21 18 12 8 7 7 7 7 7 8 9 10 11 11 11 11 11 11 10 11 11 11 10 8 9 11 13 14 13 14 15 13 13 13 13 13 13 13 13 12 13 13 12 12 11 13 17 19 23
7 6 6 6 6 6 5 5 4 4 4 4 4 4 4 5 6 8 9 9 9 9 9 10 11 12 12 11 10 10 9 9 9 11 14 16 19 25 29 27 23 18 11 7 7 7 7 7 8 9 10 11 12 11 11 12 11 9 10 12 12 11 9 9 12 13 13 13 15 15 14 13 13 13 13 13 13 12 12 12 12 12 12 11 13 18 22 28
6 6 6 6 5 5 5 5 5 4 4 4 4 4 4 4 6 9 12 13 13 12 13 13 14 14 13 12 11 10 9 8 8 8 9 10 12 17 25 27 24 20 15 9 7 7 8 7 8 9 11 12 12 12 12 13 13 10 10 12 13 12 10 10 11 14 15 13 15 15 14 14 13 13 13 13 12 12 12 12 12 11 11 12 14 20 28 34
6 6 6 6 5 5 5 5 5 4 4 4 4 5 4 4 5 8 12 15 16 17 17 17 16 15 13 12 11 10 10 11 10 8 8 9 10 12 16 17 17 17 16 11 8 8 8 8 10 11 12 13 13 13 13 13 14 12 11 12 12 11 11 11 11 14 16 14 15 15 14 14 13 13 12 13 12 12 12 11 11 11 11 14 19 26 32 35
6 6 5 5 5 5 5 5 5 5 5 5 5 5 5 4 4 5 9 14 17 18 19 19 18 16 14 13 12 10 12 13 12 12 14 16 17 17 17 15 13 13 14 13 9 8 9 10 12 13 14 15 15 14 14 14 14 14 14 13 12 11 11 12 11 13 15 15 14 14 14 14 13 13 13 13 13 12 12 11 11 10 11 18 27 32 33 34
6 6 6 6 6 6 6 6 6 5 5 5 5 5 5 5 5 4 6 10 15 17 19 20 19 18 15 14 12 11 11 12 14 20 24 24 21 16 16 19 17 14 13 11 9 9 9 11 13 15 18 19 17 16 16 15 15 15 16 17 15 13 12 13 13 13 14 14 14 14 14 14 14 13 13 13 12 12 11 11 11 11 12 22 33 36 33 33
6 6 6 6 7 7 7 7 7 7 7 6 6 6 5 5 5 5 4 5 10 15 18 20 20 19 16 13 12 11 10 12 20 29 31 28 20 11 10 15 16 13 12 10 10 9 10 13 16 16 20 22 20 19 20 18 17 17 17 18 17 15 14 13 14 14 14 14 13 14 13 13 13 13 13 12 12 12 11 11 11 12 16 26 35 36 33 33
6 6 6 7 8 8 8 8 7 7 7 7 6 6 5 5 5 5 5 4 6 9 15 19 20 19 16 14 13 11 11 16 26 32 32 26 15 8 8 9 10 10 11 10 8 10 16 19 20 21 21 22 23 21 21 21 19 19 19 18 17 16 15 13 14 14 13 13 13 13 13 13 13 13 13 12 12 11 11 12 12 15 21 29 35 36 35 34
6 6 7 7 8 8 8 8 7 6 6 7 7 6 6 6 5 5 5 5 5 5 9 15 19 19 16 15 12 12 17 20 22 25 23 18 10 7 8 7 9 11 10 9 10 19 28 26 25 28 25 22 25 23 22 22 21 19 19 19 17 15 15 14 14 14 13 13 13 13 13 13 13 13 13 12 12 11 12 14 14 20 27 31 34 37 37 35
6 6 7 7 7 8 8 8 7 6 6 6 7 7 6 6 6 5 5 5 5 4 5 10 18 20 17 17 14 12 22 23 18 19 15 10 8 8 9 9 11 11 10 13 21 31 36 31 28 31 28 24 25 24 22 23 21 20 18 19 18 15 15 15 14 14 13 14 16 16 16 15 14 13 13 13 12 11 13 14 16 25 31 32 35 38 38 34
6 6 6 7 7 7 8 8 7 6 6 6 7 7 7 7 7 5 6 6 6 7 6 6 13 19 18 21 20 14 23 28 23 21 15 8 9 9 10 11 11 11 17 25 33 37 37 34 31 30 28 26 25 23 22 22 21 20 18 18 20 18 17 18 17 17 17 19 21 21 21 19 17 14 12 12 12 12 13 13 16 22 27 32 37 39 38 33
7 7 6 7 7 7 8 8 8 7 6 6 7 7 7 7 7 8 10 11 14 16 16 13 11 16 20 20 22 19 24 32 27 22 15 9 9 11 11 12 13 20 31 36 37 37 35 33 31 29 27 26 24 23 22 21 20 20 19 19 21 21 20 21 21 23 23 22 22 22 22 21 18 15 12 13 12 11 12 13 16 19 24 32 38 39 38 33
7 7 7 7 7 7 8 8 9 8 7 7 8 7 6 8 11 17 21 20 24 28 30 30 20 18 22 20 21 24 28 33 28 20 13 10 11 11 13 18 26 34 39 39 37 36 34 30 30 28 26 25 23 22 20 20 20 20 21 21 22 22 20 21 23 25 24 22 21 21 21 20 18 15 12 14 13 11 13 14 18 23 26 33 39 39 37 33
7 7 7 7 7 7 8 9 9 8 8 8 8 7 7 10 13 20 24 19 23 27 27 30 25 20 23 24 26 31 34 34 28 18 11 11 12 13 19 28 36 40 40 39 36 35 32 28 28 26 25 24 22 21 19 20 21 21 23 22 22 21 20 22 24 23 22 21 21 19 18 18 18 16 12 12 13 13 14 14 19 24 27 37 43 39 36 35
8 8 7 7 7 7 8 9 10 9 8 9 8 7 7 9 13 17 16 11 16 21 19 20 20 18 20 24 29 35 38 34 26 18 12 12 13 18 27 33 38 39 39 38 35 34 31 27 26 24 24 23 22 21 19 19 20 21 22 23 22 21 22 24 23 21 21 22 21 18 16 16 17 15 13 12 12 14 16 17 21 24 30 42 45 40 38 35
8 8 8 8 7 7 8 9 10 9 9 10 9 8 7 9 14 16 12 7 10 16 18 16 14 16 19 23 29 37 38 34 27 18 13 12 14 22 30 32 36 37 37 37 34 33 31 26 25 24 23 22 21 20 20 19 18 20 22 23 23 23 24 23 21 21 22 23 22 17 15 16 15 14 13 13 12 15 21 22 23 29 37 45 45 42 38 32
6 7 8 8 8 7 8 9 11 10 9 10 9 8 9 11 15 19 17 12 8 11 17 16 13 16 20 21 28 36 37 35 29 18 12 12 13 23 29 30 34 36 35 36 33 31 30 24 22 23 24 24 22 20 19 18 19 22 24 24 25 26 26 22 21 22 21 22 20 16 16 15 14 13 13 13 12 19 27 25 26 36 43 45 44 42 39 33
6 6 6 7 8 8 8 8 10 11 10 10 10 9 10 13 18 24 26 19 9 10 15 14 12 17 21 21 24 33 37 36 28 16 13 13 12 21 28 28 31 33 34 34 32 30 27 24 22 23 26 27 26 23 21 19 21 24 25 26 27 26 24 21 22 24 22 23 20 16 18 18 15 14 14 13 13 22 31 28 30 39 44 43 41 41 40 36
6 6 6 6 6 7 7 8 10 11 11 11 10 10 11 15 22 28 30 23 12 14 21 18 14 17 22 21 21 30 38 33 24 16 14 14 12 17 25 27 28 30 30 30 31 29 24 25 25 25 27 28 27 26 24 23 25 26 27 28 28 25 23 21 23 24 22 24 21 17 21 21 17 14 14 14 14 23 32 30 30 35 40 41 39 39 42 40
7 6 6 6 5 6 7 7 9 10 11 12 10 11 12 17 28 31 29 26 18 22 34 33 24 20 21 20 21 31 37 30 21 18 17 18 18 20 24 25 25 27 28 27 28 25 22 25 27 27 27 27 26 26 26 26 27 29 29 28 26 25 24 24 25 23 22 24 23 21 21 20 19 17 17 15 14 21 29 29 29 30 34 38 38 39 42 43
11 8 7 7 6 6 6 6 8 9 11 12 11 12 14 22 33 30 29 34 30 31 40 40 32 26 22 21 24 31 36 32 25 21 19 22 24 25 25 26 25 26 28 28 26 23 23 25 27 27 27 26 25 25 26 28 29 29 29 27 24 23 22 24 25 23 23 25 25 24 21 20 22 22 20 18 17 21 24 24 26 27 30 33 36 38 42 45
18 15 11 8 7 6 6 6 7 8 10 12 12 13 17 29 34 29 34 43 37 35 42 38 33 31 26 24 28 33 36 35 31 26 23 24 27 27 26 26 26 27 28 27 26 24 24 26 26 26 25 25 25 25 26 28 29 28 28 26 23 22 21 22 24 24 24 24 25 25 21 21 26 24 22 22 20 21 21 20 22 25 29 32 36 39 42 45
17 18 18 15 11 7 6 6 6 7 9 10 13 13 18 31 34 31 38 40 31 34 40 38 33 30 29 29 32 34 36 37 35 32 27 26 29 28 27 26 25 26 27 26 26 26 25 25 25 25 25 25 25 25 25 26 27 27 26 26 23 22 23 22 23 25 25 24 24 26 23 21 25 26 24 23 21 21 21 20 19 21 26 31 35 39 43 47
8 10 15 18 17 13 8 7 7 6 7 9 13 13 17 32 37 37 41 34 31 39 39 38 38 34 30 32 34 34 35 37 37 36 31 30 33 31 29 28 26 27 27 26 27 26 25 26 25 25 24 25 25 25 25 25 27 26 25 25 25 24 23 22 24 26 27 26 24 26 26 23 24 26 25 23 23 22 21 21 20 19 21 25 30 36 43 50
4 4 7 11 15 17 13 11 8 6 7 8 12 13 18 32 39 39 39 27 28 41 40 39 44 39 33 31 33 34 35 37 38 38 35 33 36 36 34 33 31 30 30 29 28 28 27 26 24 24 24 25 25 25 26 27 28 27 26 25 25 25 25 25 27 27 26 27 26 26 27 25 24 26 26 24 23 23 22 22 21 20 20 21 23 28 37 48
4 3 4 4 8 12 16 17 11 7 7 6 11 14 18 38 47 36 28 22 27 41 42 42 44 42 37 34 32 32 33 37 39 39 37 35 37 38 36 35 33 31 32 32 30 29 28 25 24 24 24 24 25 25 27 29 29 28 26 25 24 25 27 27 28 29 28 28 30 30 29 27 25 26 27 25 23 23 22 22 21 21 21 21 21 24 31 43
4 3 4 3 4 6 12 17 15 9 7 6 12 14 19 40 48 29 14 16 31 44 43 40 41 39 38 37 35 33 34 37 38 38 38 37 37 38 37 36 35 32 32 31 31 30 29 26 25 25 24 23 24 25 27 29 29 27 25 24 23 25 30 31 32 35 32 29 33 35 31 29 28 27 26 26 24 24 24 23 22 21 20 21 22 22 26 37
4 3 4 3 3 3 5 13 18 12 8 7 9 17 29 36 31 21 14 11 21 37 40 37 37 36 36 36 35 35 36 38 39 38 39 39 38 38 37 37 37 35 33 31 30 31 30 27 25 24 23 23 23 24 26 27 27 27 26 24 22 23 27 29 30 32 32 31 35 37 32 29 31 29 28 28 27 26 26 25 24 23 22 21 21 22 24 30
4 3 4 3 3 4 2 7 15 15 11 8 8 20 34 29 16 18 21 14 12 18 23 26 30 31 32 33 35 36 36 36 37 37 37 38 37 35 35 35 35 35 35 33 32 31 30 28 25 23 23 22 23 23 24 25 26 26 27 25 23 22 22 25 28 30 32 34 36 37 33 30 32 32 30 31 30 28 28 26 26 25 24 23 22 21 21 23
4 3 4 3 3 4 3 3 10 17 15 8 11 22 24 15 12 16 22 25 22 18 16 17 20 23 27 29 32 36 36 34 34 34 34 35 35 35 33 33 33 33 33 33 32 31 30 28 25 24 24 23 23 23 23 23 24 24 26 25 22 22 22 24 30 34 34 34 36 37 35 33 33 34 33 32 31 30 29 28 27 26 25 25 24 22 22 23
4 4 3 4 3 3 4 2 6 16 18 11 13 18 11 8 13 16 21 29 31 28 25 21 20 24 27 28 31 35 36 36 35 34 33 33 34 34 33 33 32 31 32 32 31 31 29 27 26 24 25 24 22 23 24 23 23 22 24 23 21 23 24 24 30 36 34 32 34 36 37 35 33 34 34 33 32 31 30 30 29 29 27 27 25 25 25 24
4 5 3 4 4 3 4 4 6 14 19 15 13 11 8 9 12 16 22 28 33 37 36 28 24 28 32 33 35 37 37 36 36 35 34 34 34 33 31 32 32 31 31 32 32 31 29 28 27 26 25 25 23 24 25 24 24 23 22 21 21 24 26 26 29 34 34 33 35 37 38 36 32 33 32 30 30 30 29 30 31 31 30 29 30 30 31 36
5 5 5 4 5 7 7 6 8 15 20 17 13 10 10 11 11 15 21 26 33 39 37 30 23 23 30 35 36 40 42 39 38 38 36 34 35 36 33 32 33 32 31 31 31 32 31 30 28 26 25 25 24 24 24 24 25 24 23 22 21 23 25 26 27 29 30 33 36 36 37 36 32 33 32 28 29 29 30 33 33 32 35 38 40 40 42 49
5 4 6 7 6 11 15 15 16 20 20 19 15 11 12 15 15 16 19 23 28 30 28 26 23 20 22 27 33 38 41 43 43 42 40 37 35 37 37 34 33 32 31 31 31 31 31 31 29 27 26 25 24 24 24 23 23 24 24 21 21 22 24 27 27 28 28 31 35 35 35 36 33 31 32 31 31 32 34 37 35 38 44 45 46 49 52 53
7 6 9 10 7 15 25 28 29 28 22 19 17 13 14 19 22 21 21 22 24 25 23 21 20 20 18 21 30 36 37 41 46 45 46 45 40 38 38 36 32 31 30 30 31 31 32 32 30 28 27 26 24 23 23 23 22 22 23 21 21 22 25 27 29 32 30 29 33 33 32 36 35 32 33 34 35 36 38 38 38 46 52 47 47 56 58 54
6 6 13 15 17 30 36 32 35 35 25 20 18 16 16 20 26 27 26 26 25 23 24 21 18 18 15 16 25 34 35 36 41 45 48 48 45 42 40 38 35 33 32 30 29 29 30 31 30 29 28 26 26 24 23 23 21 21 21 21 22 22 24 26 28 32 31 29 33 31 30 38 39 35 36 36 36 36 38 39 40 52 61 55 51 53 50 48
9 16 28 32 41 53 43 27 32 34 24 21 21 21 21 23 28 29 25 25 27 24 21 20 18 17 16 14 19 29 35 34 35 41 45 44 44 44 44 44 42 39 36 34 30 29 31 32 30 30 28 26 26 25 25 24 23 22 21 21 23 23 23 23 24 27 29 31 34 31 32 40 41 38 37 36 35 34 38 41 41 57 73 66 55 50 46 48
20 33 46 52 61 66 49 29 27 26 24 29 30 28 30 30 30 30 29 26 27 30 30 26 22 20 19 20 23 30 34 33 32 36 42 44 41 43 47 48 48 47 44 40 34 33 35 34 31 32 32 30 29 28 27 26 25 25 24 23 23 22 22 22 23 27 30 31 31 29 33 39 39 39 37 35 35 35 39 43 41 57 76 66 53 52 51 51
32 45 57 65 70 72 67 53 37 24 21 32 39 33 34 38 31 28 41 46 38 39 44 41 33 28 27 29 32 34 34 32 31 35 42 46 43 45 48 48 48 49 49 47 42 39 39 36 32 33 35 35 34 32 30 27 25 26 25 25 25 23 23 23 23 28 31 31 30 29 33 37 37 39 39 36 36 34 38 43 44 58 73 64 56 58 55 53
39 52 62 73 76 78 85 82 65 47 29 29 43 43 43 56 53 42 54 63 53 46 48 47 42 37 37 38 36 35 33 32 33 37 43 47 46 47 49 49 48 47 46 47 47 45 44 39 34 33 33 33 33 32 30 27 26 27 26 27 27 27 27 25 25 28 29 30 34 33 32 34 36 41 41 38 37 34 36 44 51 60 65 60 59 61 57 53
36 49 57 72 85 89 94 92 85 81 65 48 52 55 56 71 75 63 61 63 57 53 51 48 46 43 42 42 40 38 36 33 33 38 46 49 48 48 50 50 50 48 45 44 45 49 51 45 38 35 33 34 34 34 33 30 27 29 29 28 28 27 28 27 28 30 29 30 36 36 32 34 38 42 42 40 39 35 36 48 59 62 60 59 60 61 58 55
32 47 55 68 80 85 94 96 89 93 90 73 65 65 66 72 73 66 64 61 58 56 53 49 48 46 45 44 43 40 38 36 36 40 46 49 49 49 50 50 50 50 48 47 46 49 54 54 51 46 43 41 40 38 36 33 32 34 35 35 33 30 29 28 28 30 31 31 35 36 35 38 42 44 43 42 42 39 40 54 65 63 59 60 61 59 58 55
30 44 51 59 66 70 85 97 95 92 90 81 73 71 71 71 69 66 65 63 60 57 54 51 48 46 46 46 45 41 39 39 41 42 44 47 49 50 51 51 51 51 51 52 51 50 53 59 60 59 57 54 49 46 42 36 36 40 41 41 42 41 36 31 28 28 30 30 32 35 38 42 46 48 47 45 47 47 48 58 67 64 59 59 60 59 56 51
27 33 40 50 56 58 69 87 96 95 89 81 75 73 72 70 69 68 67 64 62 59 57 54 50 48 47 46 45 43 41 41 44 45 45 47 49 50 52 52 51 51 53 54 54 52 53 58 61 62 65 63 58 56 53 45 40 43 44 44 48 51 48 41 34 32 32 30 30 33 40 46 51 54 54 52 55 59 61 67 71 68 63 61 59 57 54 49
21 22 27 38 47 49 58 77 91 93 91 89 86 82 79 75 73 72 70 68 66 63 62 60 57 56 54 50 48 47 46 45 47 49 49 50 50 50 50 49 48 49 50 51 54 55 54 58 62 65 70 69 65 65 65 59 53 51 50 47 46 51 55 51 44 40 38 35 34 38 42 48 52 57 59 58 60 67 74 79 79 76 71 69 66 63 60 58
19 18 17 28 39 42 50 69 81 81 86 93 93 91 88 85 83 78 73 74 74 69 67 66 65 65 64 61 57 54 54 53 52 53 52 51 50 49 48 47 46 45 43 44 48 52 53 56 59 63 69 70 69 68 70 70 67 62 57 53 51 53 56 55 50 48 46 41 39 40 41 45 49 54 60 62 64 71 79 85 86 83 80 77 75 72 70 68
Wind_Speed
14 15 15 15 16 16 17 17 18 18 18 18 18 18 17 17 17 17 17 17 17 16 16 16 16 16 16 16 16 15 14 14 13 13 13 13 14 14 14 15 16 16 17 19 22 24 26 25 23 22 22 21 21 21 21 20 20 19 19 21 22 22 18 14 10 10 12 8 5 7 8 9 10 12 12 11 11 10 9 13 12 10 10 9 9 8 6 4
14 14 14 15 15 15 15 16 16 17 18 18 18 18 18 17 17 17 17 17 17 17 16 16 16 16 16 16 15 15 14 14 13 13 12 13 14 13 14 14 15 16 17 18 20 24 26 26 24 23 23 22 22 22 21 21 20 20 21 22 22 21 17 13 10 10 12 11 7 6 7 8 9 11 12 11 11 11 9 10 11 11 10 10 9 8 5 3
13 13 14 14 14 15 15 15 15 16 17 17 18 18 18 17 17 17 17 17 17 17 17 17 17 16 16 15 15 14 14 13 13 13 13 13 13 13 13 14 14 15 17 19 21 23 26 27 26 25 24 23 23 23 22 21 21 21 22 22 22 20 15 12 10 10 12 13 9 6 6 8 9 10 10 10 10 11 10 9 9 10 9 8 7 6 4 2
13 13 14 14 14 14 14 15 15 15 15 16 17 17 17 17 17 17 17 17 17 17 17 17 17 16 15 15 14 13 13 13 14 14 14 13 13 12 13 14 15 15 16 18 20 23 25 27 27 26 25 24 23 23 22 22 22 22 22 22 22 19 16 13 11 10 13 14 10 7 7 9 9 10 10 8 9 9 9 8 8 7 6 5 5 4 3 2
13 14 14 14 14 14 15 15 15 15 15 15 15 16 16 17 17 17 17 17 17 17 16 16 16 15 14 14 13 12 12 12 13 14 14 13 12 13 13 14 15 15 16 17 19 21 24 26 27 26 26 25 25 24 23 23 22 22 22 22 22 19 17 14 11 11 13 14 12 10 9 10 10 10 10 8 6 6 6 6 6 6 4 2 3 3 3 3
14 14 15 15 15 15 15 15 15 15 15 15 15 15 15 15 16 16 16 17 17 16 16 16 15 14 13 13 12 11 11 10 12 13 13 13 12 12 12 13 14 14 14 15 17 20 23 25 26 27 27 26 25 24 23 23 22 22 21 22 22 20 18 14 12 12 14 16 15 14 12 11 10 9 10 9 6 6 5 5 4 4 3 1 2 3 3 5
15 15 15 15 15 15 16 16 16 16 15 15 15 14 14 14 15 15 16 16 16 16 15 15 14 13 12 12 11 10 10 11 13 12 13 12 11 11 12 11 12 12 13 14 16 19 22 25 26 27 27 26 25 24 22 22 22 22 21 21 21 20 18 14 13 14 16 18 17 17 15 12 10 9 9 10 8 7 6 5 5 4 3 1 1 4 5 6
15 15 16 16 16 16 16 16 16 16 16 16 15 15 14 14 14 15 15 15 15 15 14 14 14 12 12 11 11 10 10 12 13 13 14 13 11 11 12 11 10 10 11 13 16 18 20 23 25 26 26 26 24 22 22 21 21 22 21 21 20 19 17 15 15 16 18 19 18 18 16 13 12 11 10 10 9 8 7 6 6 5 4 2 3 6 6 6
15 16 16 16 16 16 16 16 16 16 16 16 16 15 15 14 14 14 14 14 14 14 14 14 13 12 12 11 11 10 10 12 12 13 14 14 13 12 12 12 11 10 11 13 15 17 19 21 22 24 24 24 23 22 22 20 19 20 21 21 20 19 18 17 17 17 18 19 18 18 17 15 13 13 12 12 11 10 8 7 6 6 6 4 7 8 8 8
15 15 15 15 15 15 15 15 15 16 16 16 16 16 15 14 14 15 14 14 14 14 13 13 12 12 11 11 10 10 11 12 12 12 13 13 13 12 12 13 12 12 11 12 14 16 17 18 19 20 21 21 21 21 21 19 18 18 20 21 21 20 19 18 18 18 18 19 19 18 17 15 14 14 13 13 12 10 8 8 8 8 7 8 10 9 10 10
14 14 14 14 14 13 14 14 14 15 15 16 16 16 16 15 15 15 15 14 14 14 13 13 12 12 11 10 10 10 11 11 10 11 12 12 11 10 11 12 12 12 11 11 13 15 16 17 17 18 18 18 20 19 19 19 19 18 18 19 20 20 19 18 17 18 18 17 17 18 18 17 16 15 14 13 11 10 9 8 7 7 9 11 12 11 11 10
14 14 13 13 13 13 13 13 14 14 14 15 15 16 16 15 15 15 15 15 14 14 14 13 13 12 11 10 10 11 11 10 9 11 12 11 10 10 10 11 12 12 11 11 13 15 16 16 17 17 16 17 18 17 17 19 18 19 18 15 15 17 17 17 16 18 16 13 15 18 19 20 19 14 12 11 9 9 8 8 7 7 10 14 14 13 11 9
14 13 13 12 12 13 13 14 14 14 14 15 15 15 16 16 16 16 16 15 15 15 15 14 13 12 10 9 11 11 10 9 9 11 12 11 10 9 9 10 11 12 13 14 15 16 16 16 17 18 17 14 16 15 13 16 17 17 17 14 11 12 14 15 15 16 14 11 12 15 17 20 19 16 13 10 9 8 7 7 8 8 13 16 15 13 11 9
13 13 13 13 13 13 14 15 15 15 15 15 15 15 16 16 16 16 16 15 16 16 16 14 13 12 10 9 11 9 8 9 11 12 13 11 10 9 9 10 11 11 13 16 18 18 17 18 17 17 17 14 15 15 10 13 16 14 13 12 11 9 10 13 15 15 13 10 11 13 15 17 17 16 15 12 11 9 8 9 9 11 15 16 14 13 12 10
13 13 13 13 13 14 14 15 16 15 16 15 15 16 16 16 16 16 16 15 15 16 16 15 13 12 10 9 10 8 8 10 11 12 12 11 10 10 10 11 11 12 15 18 19 20 19 20 18 15 16 16 13 13 11 10 13 14 11 9 11 10 8 11 14 15 14 12 12 13 14 15 15 15 13 12 12 12 11 11 12 15 17 14 14 14 12 11
14 14 14 14 14 14 15 15 15 15 16 16 16 16 16 15 15 15 15 15 15 14 15 14 13 12 10 9 9 9 10 11 11 11 11 11 10 10 11 12 12 15 18 20 20 19 18 19 19 14 14 16 13 12 13 10 10 13 12 9 10 12 12 11 13 14 14 12 11 12 12 12 13 14 14 13 13 13 14 13 14 17 17 13 14 15 13 11
14 14 14 14 14 14 15 15 15 15 15 15 15 16 16 15 15 14 14 14 13 12 12 12 13 12 10 9 9 10 12 12 11 10 10 11 10 10 12 12 15 19 21 22 20 18 18 17 19 15 11 13 14 13 13 10 10 13 14 11 9 11 13 11 11 12 12 11 9 10 12 11 10 11 13 15 16 15 15 16 16 18 17 15 15 15 13 12
14 15 15 15 15 14 15 15 15 15 15 14 15 15 15 15 14 13 13 13 12 11 10 9 11 10 9 10 10 11 14 14 12 11 11 11 11 12 14 15 19 23 23 21 19 17 16 15 16 16 12 12 14 15 13 11 12 13 14 13 10 10 12 10 10 10 10 11 9 10 11 10 11 11 11 13 17 19 18 18 19 18 18 18 17 16 14 13
15 15 15 15 15 14 14 14 14 14 14 14 15 15 15 14 13 12 13 12 11 11 10 8 9 9 9 10 12 12 13 14 13 13 13 13 13 15 18 21 23 24 22 20 19 16 15 14 14 16 16 14 13 14 13 10 11 12 12 12 10 9 10 10 8 6 8 10 10 11 12 11 12 15 15 12 13 19 22 21 20 20 20 20 18 16 15 14
15 15 16 15 15 15 14 14 14 14 14 14 15 16 15 14 14 12 12 12 12 13 13 12 11 12 12 11 12 13 13 14 14 13 14 14 16 19 22 24 25 23 20 19 18 16 13 13 14 15 15 14 12 12 12 11 11 11 10 10 9 10 9 8 6 4 6 8 7 10 14 14 14 16 19 16 12 15 21 21 20 22 23 21 18 17 16 15
17 16 16 16 16 15 14 13 13 13 13 14 15 16 15 16 15 14 14 10 9 12 15 15 14 12 14 15 14 14 13 14 14 14 15 16 19 22 24 25 24 22 19 18 16 15 14 13 13 12 11 12 12 13 12 12 12 10 9 9 8 9 8 6 4 3 5 6 7 8 11 15 17 17 19 18 13 12 15 19 21 24 24 20 18 17 17 16
18 18 17 16 16 16 14 13 13 13 13 13 14 16 16 15 15 16 17 11 5 9 14 16 14 9 13 17 16 16 16 15 15 16 16 18 21 24 24 24 23 20 19 18 16 15 16 15 12 10 11 12 12 14 12 11 13 11 9 9 9 8 6 4 3 3 4 4 7 6 11 16 17 18 18 16 14 11 12 19 23 25 24 21 19 18 18 17
18 19 18 18 17 17 15 13 13 13 12 13 14 15 15 14 15 15 18 17 7 5 11 14 12 7 12 18 19 18 18 16 17 17 16 18 21 24 24 22 22 20 19 19 18 14 13 13 11 10 9 10 11 13 13 12 13 12 10 10 9 7 5 4 2 4 4 4 6 5 14 19 18 18 18 16 13 11 13 20 24 24 23 21 19 18 18 17
19 19 19 19 18 18 16 14 13 13 12 13 14 14 14 13 14 15 17 20 12 5 8 13 11 5 11 19 21 19 18 17 18 18 17 19 22 23 22 20 20 20 19 18 18 16 12 8 8 11 9 8 9 11 13 14 14 12 11 10 9 6 3 2 1 4 3 2 2 6 12 17 20 19 17 15 13 12 14 19 22 23 24 22 19 17 16 16
20 19 19 19 19 19 17 15 14 14 12 13 13 13 13 12 13 14 16 20 16 8 6 9 8 7 13 21 22 19 17 16 17 18 18 17 19 19 20 19 18 19 19 17 18 18 15 9 8 11 8 6 9 10 11 13 13 11 12 10 9 5 2 1 1 2 3 1 2 6 5 9 18 19 16 16 13 12 14 17 18 19 22 22 19 15 15 17
20 20 20 19 19 19 19 17 15 15 13 13 13 13 12 11 11 12 15 19 16 6 4 4 4 7 12 19 21 19 16 16 17 18 18 16 16 16 16 18 17 16 16 16 17 18 16 13 9 8 4 2 8 12 11 12 12 12 11 11 9 6 4 2 2 2 3 3 5 5 2 5 12 15 14 15 14 12 14 16 17 17 19 21 19 16 16 18
20 20 20 20 20 19 19 18 16 15 15 14 13 13 11 9 9 11 12 13 9 2 4 3 4 5 10 18 21 19 14 13 17 19 18 17 15 15 15 17 16 15 15 15 15 15 15 14 10 7 2 0 7 13 12 13 13 12 11 10 9 6 5 4 4 2 2 5 5 3 4 6 7 10 13 14 13 13 14 15 16 17 19 20 20 18 19 20
21 20 19 19 20 20 19 18 17 17 15 14 13 12 11 8 7 8 7 4 3 1 3 0 4 4 11 19 22 19 11 10 18 19 18 18 16 16 16 17 15 13 14 16 14 12 13 13 10 6 3 1 6 10 12 14 14 12 10 10 8 5 3 4 5 4 3 5 4 4 7 6 4 10 14 14 13 13 13 13 13 16 19 20 19 19 20 21
21 20 20 19 19 20 20 18 18 17 16 15 13 13 11 8 6 5 3 2 2 1 1 1 3 4 12 20 22 21 11 9 17 18 18 20 18 17 16 15 15 13 13 16 15 11 9 10 9 6 5 2 3 6 11 14 14 12 11 10 7 4 4 5 7 5 4 5 4 6 9 5 4 11 14 13 14 13 12 12 12 13 17 21 22 21 21 22
20 20 20 19 18 19 19 18 18 18 17 15 14 13 12 9 7 3 0 3 2 1 2 3 3 3 11 19 22 22 15 10 12 15 19 21 18 17 15 13 14 14 13 15 16 14 10 10 10 8 7 4 2 4 9 14 13 13 13 10 7 5 5 6 6 6 4 3 4 7 9 6 5 11 14 13 13 13 12 11 11 12 14 19 23 25 24 23
20 19 19 19 18 18 18 17 18 19 17 16 15 14 12 11 9 4 1 5 4 2 2 5 6 4 8 16 21 21 20 14 10 12 20 22 20 19 18 15 15 13 13 15 15 15 14 13 12 10 9 6 4 4 8 12 13 13 13 11 7 5 5 5 5 6 5 3 5 8 10 8 5 9 13 13 13 14 13 11 11 11 12 14 19 26 27 25
20 19 19 19 18 17 17 18 19 19 18 17 15 14 14 12 11 12 9 5 4 4 5 7 8 6 5 11 17 20 21 19 13 11 18 21 21 21 19 18 16 12 11 14 14 12 13 15 14 12 11 10 7 6 8 12 14 14 13 11 8 4 3 4 3 3 4 2 4 8 10 7 5 10 15 15 15 16 15 13 12 11 11 11 14 22 27 26
21 19 19 19 18 17 17 18 18 19 19 17 16 17 17 10 9 19 20 10 3 6 8 7 7 7 5 7 13 18 21 21 18 14 16 18 19 20 19 18 18 14 9 11 13 11 9 12 14 13 13 12 11 10 11 13 16 16 15 13 9 4 2 3 1 0 3 3 5 8 8 6 6 11 16 17 16 17 16 14 13 12 12 11 11 16 24 27
23 21 19 18 18 17 17 17 18 20 20 19 18 19 19 12 11 19 21 16 11 8 7 7 7 7 6 5 9 15 19 21 20 18 18 18 18 19 20 20 20 19 13 10 12 11 7 8 12 14 14 13 13 12 13 14 17 18 17 15 13 9 5 3 3 3 3 4 7 8 6 5 7 11 16 17 16 16 15 14 13 13 13 13 13 14 18 25
23 22 20 18 17 16 16 16 17 19 21 21 21 23 23 21 20 17 14 16 16 14 13 12 10 9 7 7 7 11 16 19 20 21 20 20 20 20 20 19 18 20 19 15 10 9 8 6 9 13 15 14 13 13 14 14 15 17 19 17 14 12 9 6 5 6 5 3 5 7 5 5 8 10 13 15 14 13 13 13 14 13 14 15 15 16 17 22
22 21 20 17 16 15 15 15 16 18 22 23 24 27 29 27 22 16 12 13 14 15 16 14 13 12 10 9 9 10 13 15 16 19 20 20 21 21 20 18 18 18 19 19 14 9 8 7 8 12 15 15 14 13 15 15 14 15 19 19 16 13 13 9 5 4 5 3 5 6 4 5 8 9 11 11 10 10 9 10 13 13 15 16 17 19 20 22
21 20 18 17 16 15 14 14 15 18 22 25 28 29 30 29 24 16 12 12 12 12 12 10 9 9 8 8 9 11 12 12 12 15 18 17 16 20 22 20 19 17 16 18 18 13 9 6 6 11 14 17 17 14 14 17 16 15 17 19 17 13 12 11 4 3 3 3 4 5 3 6 8 6 10 12 9 8 8 8 10 11 14 16 18 20 20 21
21 19 17 15 15 14 14 12 15 19 21 26 31 30 28 27 26 21 16 13 12 11 9 7 6 6 5 5 7 10 12 11 10 11 15 16 13 14 20 21 19 17 15 16 17 15 12 7 5 9 12 15 18 17 15 17 20 18 16 16 15 10 10 12 6 3 5 3 2 3 3 7 10 8 10 14 12 9 9 7 8 8 9 11 13 14 13 12
20 18 16 14 13 13 12 12 15 19 23 28 31 29 28 27 25 24 21 16 13 11 9 7 6 6 5 4 5 8 12 12 11 10 11 14 12 10 14 16 16 16 16 16 17 17 16 11 6 8 11 11 15 18 17 17 20 21 17 16 15 11 11 14 10 6 8 4 1 4 3 5 12 13 11 12 13 12 10 9 7 6 5 3 3 3 4 4
19 18 16 13 12 11 9 10 14 18 24 28 29 28 27 25 23 24 23 21 18 15 13 11 10 9 9 8 5 5 10 13 13 13 11 10 11 11 10 10 10 12 14 16 18 18 18 15 9 8 11 11 12 16 17 16 18 21 21 19 18 15 12 13 11 8 8 4 2 4 2 5 14 17 14 13 14 13 13 11 8 5 4 5 8 13 16 15
18 16 14 13 11 9 6 9 14 19 23 26 27 28 26 22 18 17 19 20 20 19 17 16 15 13 13 12 9 5 7 10 12 15 15 12 11 11 10 9 9 9 11 14 18 18 18 18 14 11 13 14 14 16 17 16 17 19 21 22 22 20 15 11 7 8 8 5 5 6 3 7 16 18 16 15 15 15 15 13 9 7 8 9 11 16 17 14
18 15 13 11 9 7 5 8 14 18 22 25 25 25 25 23 17 12 12 15 16 16 17 16 16 16 15 15 13 9 7 8 9 13 17 17 16 13 11 11 10 8 8 11 15 19 19 18 17 14 13 15 15 15 16 16 15 17 18 20 21 20 19 12 6 9 12 7 7 7 4 7 16 18 16 17 16 16 17 15 11 10 12 12 12 12 10 8
18 15 13 11 8 6 4 7 13 17 21 23 23 21 20 20 17 13 12 13 13 14 15 15 14 14 15 15 15 14 11 9 8 11 15 17 19 19 16 15 14 11 8 6 10 17 18 16 16 13 10 12 13 13 15 14 13 14 15 17 18 18 19 16 10 12 16 12 8 7 3 7 16 19 17 16 16 16 17 16 14 13 14 14 12 10 9 10
16 13 12 10 8 5 5 9 13 17 20 19 18 18 17 15 14 13 13 12 12 11 12 13 13 13 14 14 14 14 13 12 10 10 12 13 15 18 19 20 20 17 13 8 8 14 14 12 14 12 6 7 9 8 11 13 12 12 13 14 14 15 16 16 13 11 14 16 14 8 3 8 18 20 18 16 15 15 17 18 16 15 15 14 11 11 12 12
14 12 11 10 8 6 5 10 12 15 18 17 15 14 14 13 13 12 11 10 11 11 10 11 12 12 13 13 13 13 13 13 11 11 12 12 13 15 16 17 18 18 19 16 12 13 12 11 16 14 8 6 6 6 9 12 11 11 12 12 12 13 13 14 14 11 11 15 16 10 5 12 20 21 18 17 16 16 17 18 18 17 17 16 15 16 16 13
13 13 13 10 9 9 5 8 12 14 16 17 15 13 12 11 11 10 11 9 9 11 11 11 11 12 12 12 13 12 12 13 11 11 14 15 15 15 13 12 11 12 16 19 18 16 13 10 12 16 16 12 8 8 12 15 13 12 12 12 11 12 12 13 14 12 12 14 14 11 10 15 22 23 20 18 18 17 18 19 20 21 20 19 19 20 19 16
13 15 15 12 11 11 9 5 8 13 16 16 15 12 11 12 10 9 10 10 10 10 10 10 11 12 13 13 13 12 12 14 13 13 15 17 17 15 13 12 10 9 12 15 17 18 15 9 6 8 11 10 7 8 10 12 13 12 11 10 9 8 8 10 11 10 12 12 10 11 13 15 22 24 22 20 20 19 20 21 22 23 23 22 22 23 21 19
14 16 15 15 14 14 12 9 3 4 11 14 13 10 11 13 11 10 10 10 11 10 9 9 11 12 12 13 13 13 13 14 14 14 16 17 17 16 15 15 13 11 11 12 14 17 15 14 11 7 7 7 6 7 8 10 12 12 10 8 7 5 4 4 5 5 8 9 6 9 14 16 20 24 22 21 21 20 21 23 25 25 25 25 24 23 21 21
15 15 14 14 15 16 14 11 9 6 7 11 12 10 12 14 13 12 11 10 11 10 7 7 9 11 12 13 13 13 14 14 13 14 15 16 17 17 17 16 14 13 12 11 11 14 16 19 19 15 10 8 7 7 8 9 11 10 8 5 5 4 4 3 2 3 3 5 3 5 11 16 19 21 22 22 21 21 22 25 26 27 26 26 24 22 21 22
14 13 14 13 12 14 14 12 10 8 9 11 13 12 13 14 14 13 12 10 10 10 8 7 8 9 9 10 10 11 13 14 13 13 14 15 15 16 16 14 13 14 14 13 12 13 15 18 19 19 18 15 12 9 8 8 9 8 5 2 4 6 5 3 1 1 1 1 1 3 10 16 18 18 20 21 21 21 23 25 27 27 25 24 23 22 22 22
12 12 12 11 10 12 14 13 10 8 9 12 12 13 13 13 13 13 13 12 12 11 10 9 8 8 6 5 7 9 11 12 12 13 13 13 13 13 13 11 11 12 13 13 15 16 17 17 18 19 19 19 19 18 15 13 12 11 12 11 10 11 10 8 6 4 4 4 3 4 10 15 17 17 18 19 20 20 22 24 25 25 24 23 22 22 23 22
11 11 11 10 10 11 12 11 8 7 10 12 11 10 10 11 11 10 10 11 11 11 10 9 8 7 6 6 5 7 8 9 10 11 11 11 12 12 12 11 10 11 12 12 13 16 18 18 19 19 17 17 18 17 16 14 12 14 19 20 17 17 16 14 12 10 8 8 7 7 9 13 16 18 19 18 19 19 20 23 24 25 25 24 24 24 23 23
Wind_Direction
295 296 297 297 295 293 292 290 288 287 285 283 281 279 276 274 272 269 268 266 265 265 265 265 266 268 270 271 272 271 270 270 269 266 262 258 254 252 247 244 243 239 236 234 232 228 226 224 222 220 221 220 220 220 219 218 218 219 221 224 229 232 233 231 227 202 179 171 145 125 127 122 106 112 116 115 131 136 145 152 149 147 135 118 109 110 111 117
297 299 301 300 299 298 297 296 294 291 288 285 282 279 277 274 272 269 267 266 265 265 265 265 266 267 269 271 271 271 270 270 270 268 263 257 253 251 248 246 244 239 234 231 230 228 226 224 222 220 221 221 220 219 218 218 218 220 223 227 231 233 234 229 224 211 193 182 165 137 123 126 113 112 114 109 120 128 138 142 134 134 125 110 103 98 90 92
300 301 303 303 303 303 302 302 300 298 293 289 285 281 277 274 272 270 268 266 265 265 266 266 267 267 269 270 270 269 269 269 269 268 263 257 253 250 248 246 244 239 233 229 227 227 226 223 221 220 221 222 220 220 218 217 218 221 224 229 233 234 231 224 217 212 202 193 177 151 130 132 122 113 113 104 109 124 136 135 128 130 122 107 98 80 62 66
301 302 304 304 305 306 305 305 304 302 299 295 290 285 280 275 272 270 269 268 266 266 265 266 267 268 269 269 269 268 268 269 266 264 261 258 255 251 247 244 242 237 232 230 229 227 226 224 221 220 220 222 221 221 220 218 218 220 223 228 232 233 228 220 213 211 208 202 192 173 145 142 139 127 123 109 102 116 128 133 131 129 120 104 86 61 59 91
302 303 303 304 305 306 306 306 305 304 303 301 297 291 285 279 275 272 271 270 269 267 266 267 267 268 268 267 268 266 267 270 265 259 258 257 253 250 246 242 240 238 233 231 230 229 226 225 222 221 220 221 222 222 221 219 219 220 223 227 231 231 226 219 213 212 213 211 206 195 170 159 158 147 140 128 113 123 124 126 131 131 134 110 72 69 86 117
303 303 303 305 305 306 306 305 304 304 303 302 302 298 292 285 279 275 273 272 270 269 268 268 267 267 266 264 263 261 263 265 259 255 254 250 247 247 245 242 241 239 235 231 229 228 226 224 222 221 221 222 223 224 224 222 221 222 224 228 232 231 226 219 213 210 212 212 212 208 193 176 169 163 153 143 136 154 152 144 144 140 156 127 71 112 117 129
303 303 304 304 304 304 304 304 303 302 301 301 302 301 297 291 283 279 276 274 272 271 269 268 266 264 263 260 258 258 259 256 253 253 252 247 241 241 242 240 239 238 234 230 228 228 226 224 222 221 221 222 224 224 225 225 224 223 225 230 234 234 228 220 213 209 209 210 211 212 204 190 185 183 169 160 158 169 175 175 178 173 183 240 130 158 143 130
304 304 303 303 303 303 302 302 301 300 300 299 300 300 299 295 289 283 279 277 274 272 270 268 266 263 259 257 256 254 255 255 254 253 252 249 242 237 235 234 234 236 233 228 225 225 226 224 221 220 220 221 222 224 226 228 227 225 226 231 235 236 232 222 211 207 208 209 212 213 207 201 203 201 187 179 179 183 192 195 198 206 218 238 192 174 148 131
304 303 303 302 302 301 301 300 299 298 298 297 297 297 298 297 292 286 281 277 274 272 269 266 265 262 258 256 254 251 252 253 252 251 251 250 245 238 236 235 235 236 232 227 224 222 223 223 221 219 219 220 221 223 225 226 228 228 229 234 236 234 233 224 211 207 207 209 214 216 210 208 211 210 200 195 197 198 205 212 218 228 230 213 189 172 145 136
303 303 302 303 303 302 301 300 299 298 297 297 296 295 296 296 293 287 282 277 273 270 267 265 262 259 258 255 252 253 249 246 247 248 248 250 250 245 241 240 236 234 230 226 224 221 221 221 218 216 217 219 220 220 224 224 225 228 230 234 236 233 233 230 215 207 209 209 216 220 217 216 215 212 207 204 208 209 213 220 226 234 220 188 178 165 146 144
301 301 301 302 303 304 303 303 303 301 300 299 297 296 295 295 293 287 281 276 271 267 265 262 260 257 255 252 252 252 243 240 242 242 244 246 249 249 245 240 234 229 225 223 220 216 215 214 211 210 211 214 216 218 221 221 220 223 229 233 238 236 233 233 217 208 214 215 220 225 225 225 220 217 214 210 212 211 214 219 222 225 201 177 169 158 148 150
300 299 299 300 302 304 305 306 305 305 306 304 301 298 295 293 290 287 283 277 271 266 263 260 259 255 251 251 252 248 242 240 236 234 238 242 247 251 244 234 229 225 219 212 208 207 205 202 201 199 201 208 208 211 218 219 217 220 227 230 237 241 235 232 220 211 217 222 226 228 229 230 226 224 221 214 211 208 213 221 219 210 186 173 164 154 151 152
297 296 296 297 300 303 305 307 307 307 307 306 306 303 297 291 288 288 287 283 276 268 263 258 256 253 248 251 252 248 245 237 227 228 235 241 247 248 241 230 223 221 212 199 194 194 191 189 193 194 195 199 200 202 210 213 212 217 226 229 231 241 237 229 221 214 216 223 227 228 232 234 232 233 231 220 210 207 219 226 217 200 181 170 161 154 154 153
294 292 292 294 298 302 305 306 307 307 306 306 307 307 304 294 288 289 289 287 282 274 267 258 253 251 244 248 253 248 236 221 217 226 234 240 245 240 234 225 218 215 207 197 188 179 174 179 186 192 194 191 193 197 194 200 208 213 222 228 227 232 234 227 223 217 215 224 228 228 236 237 233 234 234 223 210 210 218 218 210 192 176 167 160 157 157 158
292 289 289 291 296 301 304 306 307 307 306 305 306 309 308 300 291 289 289 290 288 283 275 262 255 250 241 243 251 239 211 209 212 221 229 234 235 229 221 213 205 200 195 189 181 170 169 180 183 185 192 191 190 190 179 179 198 206 208 215 219 221 218 214 219 220 220 227 228 229 237 235 227 226 225 217 211 211 206 204 203 186 172 166 164 162 161 165
291 288 286 288 293 299 303 307 308 308 306 305 305 307 309 306 298 293 294 294 293 290 282 269 256 248 240 236 240 223 198 201 211 214 220 224 222 217 208 196 189 188 184 176 170 166 171 183 184 180 189 193 188 184 183 181 189 200 204 201 201 206 206 205 211 218 220 222 223 228 238 238 230 227 225 216 211 209 199 192 192 183 172 170 170 167 166 167
290 288 286 286 289 295 300 305 308 309 306 304 304 305 308 310 306 300 298 296 296 294 288 274 254 243 240 234 229 215 198 198 210 212 214 214 208 201 193 183 180 177 172 167 165 167 174 183 187 187 187 192 190 184 185 191 191 191 198 199 188 190 199 201 200 203 204 209 225 239 243 239 227 228 230 222 214 209 201 192 187 182 174 173 175 173 170 168
290 288 286 285 286 290 296 302 307 309 307 304 303 303 306 310 311 307 301 298 300 299 294 279 253 238 234 231 225 212 201 202 210 213 209 204 195 186 178 173 171 168 165 167 168 170 176 181 188 190 188 187 191 191 190 195 196 189 189 194 192 192 199 195 188 193 204 219 243 255 253 237 214 213 213 211 213 210 203 196 189 184 176 173 178 176 170 170
290 288 286 284 284 286 291 297 303 307 306 304 302 302 304 308 313 312 305 303 305 299 289 277 251 227 216 217 217 210 202 206 212 211 204 197 188 179 171 168 166 167 170 172 172 174 179 181 184 190 195 193 192 195 199 201 193 184 182 187 192 200 206 199 195 211 229 241 255 256 254 239 217 210 201 195 205 203 200 197 189 182 176 175 179 177 171 173
291 289 286 284 283 283 286 292 298 303 304 303 302 302 303 306 310 309 303 301 301 292 279 271 257 227 210 203 205 205 202 207 210 208 203 193 183 176 171 171 170 172 177 176 177 179 181 189 191 192 196 200 202 204 208 208 190 177 179 187 195 206 208 202 213 242 245 251 266 259 248 233 220 213 207 206 203 196 198 199 190 178 175 176 179 177 174 177
291 289 288 285 283 281 282 286 291 297 299 299 300 302 305 308 312 311 306 299 287 281 273 268 265 238 210 203 201 201 202 205 206 207 204 191 183 177 175 178 177 177 179 179 184 187 189 199 198 194 198 203 210 214 217 214 201 189 188 193 201 209 207 202 216 247 248 261 287 269 236 218 213 207 203 207 205 198 202 199 189 180 174 175 180 179 179 183
290 289 287 286 284 280 278 280 285 290 292 294 296 301 307 313 318 319 315 309 268 260 267 266 269 249 209 205 203 201 204 204 204 208 205 193 186 182 181 184 184 181 182 185 189 194 202 207 197 194 209 214 219 222 225 221 208 204 201 204 211 208 203 189 194 261 267 288 304 263 205 195 198 195 191 195 199 202 201 195 188 182 175 172 177 181 184 190
289 288 287 286 284 281 278 275 278 282 284 286 290 298 307 316 323 324 320 317 306 257 263 264 272 254 203 204 203 203 206 204 205 208 203 196 189 185 188 189 188 187 189 194 196 196 208 218 209 203 211 216 223 225 223 217 206 203 206 212 210 196 197 187 197 280 279 306 308 224 183 182 183 183 185 188 193 193 191 191 188 182 173 169 176 184 190 196
288 287 286 285 283 281 278 273 272 275 277 279 285 295 303 315 322 323 321 316 316 313 269 260 269 249 196 201 203 205 207 204 208 206 197 195 191 188 191 193 194 194 196 202 207 208 217 230 210 199 202 204 211 215 211 205 198 203 214 211 194 178 192 205 233 278 265 327 313 173 169 182 182 181 184 184 186 184 180 185 186 181 174 172 178 186 194 199
287 286 284 283 282 281 278 273 269 269 271 273 278 289 298 312 319 318 320 316 317 332 296 261 256 227 200 200 201 202 204 203 206 204 196 193 191 189 192 196 199 200 203 207 212 217 221 216 181 181 195 199 199 201 199 199 200 208 211 195 179 176 179 208 251 248 228 246 152 152 152 183 185 184 183 183 186 182 177 178 178 179 180 180 184 188 195 202
287 284 282 281 280 279 278 274 268 265 266 268 272 279 290 303 311 317 320 313 310 330 341 295 230 211 203 199 197 196 198 201 201 201 196 190 189 191 192 198 199 199 204 207 214 220 217 208 191 183 196 190 192 197 195 196 200 204 200 182 178 180 162 180 226 204 209 187 160 172 187 167 179 183 179 181 187 182 178 179 178 181 186 189 192 194 197 202
290 285 282 278 277 275 274 273 269 264 261 262 267 271 280 290 302 321 325 313 303 316 342 320 190 198 198 194 194 190 192 198 198 200 199 191 191 196 197 199 196 192 196 199 208 214 205 201 200 196 230 12 184 196 199 195 193 195 193 181 173 164 158 190 218 200 182 173 160 174 182 155 165 178 171 173 181 180 180 184 187 190 193 194 196 199 201 202
294 289 284 278 275 272 269 270 269 263 257 255 260 262 268 275 291 321 333 320 303 339 357 39 170 186 192 191 190 188 188 192 194 198 198 195 198 201 202 202 197 195 199 200 200 201 198 199 198 199 230 205 172 195 205 198 196 197 188 174 166 163 188 218 221 205 176 187 181 152 162 155 158 171 166 168 178 183 188 195 201 201 199 199 198 200 203 203
296 292 287 281 275 271 267 266 264 262 256 249 251 254 255 261 275 304 326 287 284 291 19 137 174 190 191 191 188 188 187 183 194 198 193 194 200 201 204 203 199 202 208 209 207 206 202 197 196 211 233 216 150 187 199 198 203 201 184 175 180 204 234 232 224 207 180 196 205 172 172 172 167 168 162 164 174 181 189 197 206 209 207 204 201 202 205 206
298 294 290 284 277 271 267 263 258 257 254 245 241 242 242 243 248 265 261 235 245 266 257 201 178 187 193 193 191 192 192 179 187 196 193 194 200 203 204 203 202 208 214 217 218 219 217 210 214 227 233 221 161 168 187 193 199 194 184 183 194 215 220 218 213 198 186 201 202 192 190 187 176 174 170 166 168 173 181 190 202 214 218 214 207 204 206 209
303 298 293 285 279 272 266 260 253 251 250 241 233 231 229 226 224 200 178 236 230 221 227 180 166 173 196 197 197 199 200 191 181 191 194 195 201 206 207 205 204 207 219 226 226 226 228 227 227 228 228 221 209 193 191 192 188 188 192 192 188 186 187 194 197 191 195 198 189 193 194 192 197 190 182 173 169 173 179 187 198 210 221 224 217 209 207 208
306 303 297 288 281 274 264 256 250 247 245 236 228 222 213 208 215 215 214 236 238 201 177 157 158 167 190 204 204 204 206 204 200 197 196 197 204 209 211 210 204 197 213 226 228 231 232 230 227 229 230 224 221 216 197 190 186 189 195 189 180 162 163 188 197 199 219 220 192 191 188 192 208 194 184 179 178 180 182 188 197 206 214 222 222 215 211 209
306 304 300 293 287 277 265 258 249 243 240 231 222 213 202 193 221 227 224 224 212 178 172 164 163 170 187 212 209 207 210 212 210 206 202 204 212 216 218 219 214 208 213 221 224 228 232 229 227 231 232 223 221 217 199 191 192 196 198 191 182 155 146 198 184 228 254 228 197 190 184 180 183 183 182 180 181 183 187 193 198 202 209 215 220 219 216 213
306 305 301 297 294 284 270 260 250 241 235 225 215 204 196 198 228 233 230 228 224 212 204 200 189 188 204 218 211 210 213 216 216 215 215 215 218 221 222 223 221 220 222 222 223 220 219 224 221 224 227 221 216 209 199 197 198 204 208 206 200 187 182 200 197 204 213 190 185 185 185 174 168 175 180 182 185 189 194 198 198 201 207 214 220 223 222 217
305 304 302 299 296 290 275 259 250 242 232 223 212 201 199 210 224 230 232 233 234 239 242 239 235 232 230 224 215 210 213 219 221 225 228 226 225 227 226 225 222 221 221 222 223 217 216 226 218 215 217 215 211 204 201 204 208 212 211 211 213 211 207 202 200 200 179 156 184 188 188 178 174 181 181 182 189 194 200 205 207 214 218 220 223 228 231 225
307 306 304 299 295 293 279 257 246 240 232 223 209 205 212 221 226 229 230 229 234 240 244 247 250 249 246 241 228 209 209 217 219 221 226 229 230 231 230 229 226 224 223 220 219 214 214 224 222 215 210 206 208 209 208 210 213 211 207 210 217 216 209 199 179 177 174 178 197 191 179 170 179 194 190 184 188 189 195 207 214 224 227 226 227 228 234 233
314 311 308 301 296 294 281 257 238 232 231 223 212 214 225 229 228 227 226 225 229 237 240 240 240 238 239 239 227 210 207 212 211 213 217 221 227 230 229 231 232 233 230 222 219 214 210 219 223 220 214 205 208 215 217 218 218 210 205 211 217 211 204 202 170 121 170 205 200 189 180 173 174 186 191 189 192 191 193 204 215 223 225 225 227 230 238 239
319 317 312 303 297 292 281 258 233 225 226 221 217 223 232 232 229 227 225 225 227 228 229 227 216 214 216 213 209 206 204 204 203 207 211 211 216 225 228 232 234 234 230 221 219 215 213 225 230 225 223 212 212 219 219 217 220 218 215 218 217 205 191 191 177 154 187 195 176 184 202 198 188 178 181 190 199 206 204 206 212 217 223 230 229 232 239 232
325 324 320 308 299 293 281 254 231 221 219 218 219 224 231 233 232 229 225 225 228 227 232 240 234 227 229 216 194 194 200 205 209 209 207 207 210 214 220 227 229 229 225 217 215 214 215 224 223 218 228 221 214 218 216 213 215 217 220 221 217 211 195 189 187 185 188 186 151 176 203 215 201 194 192 197 205 208 202 196 200 207 218 214 177 148 123 124
334 332 325 314 304 297 282 250 228 217 216 221 224 225 229 234 235 232 230 230 233 238 245 253 254 252 251 243 228 204 201 206 209 211 210 206 208 208 207 211 212 219 224 219 216 215 214 220 218 209 222 222 210 213 215 214 213 211 213 213 210 207 193 186 194 195 185 176 152 170 192 204 201 205 206 204 203 200 193 191 193 194 183 146 112 102 100 98
340 337 330 322 315 304 279 239 225 218 217 223 227 227 229 234 236 235 234 234 238 243 248 254 255 255 255 248 242 227 207 209 210 214 218 217 216 212 196 189 189 198 212 215 216 216 214 218 216 206 212 215 214 217 216 213 214 213 214 213 209 205 192 178 191 200 188 182 180 180 190 193 196 203 205 202 199 194 193 195 192 184 173 151 126 118 117 117
342 342 342 340 332 318 285 235 225 220 216 220 225 226 228 233 237 234 230 233 238 241 245 250 250 248 250 248 241 235 232 234 224 219 219 216 216 215 198 192 195 193 201 212 213 212 212 215 212 203 207 214 218 221 214 208 210 211 215 215 210 208 202 191 195 199 192 191 189 185 192 196 194 195 194 196 196 192 194 195 189 184 173 155 146 146 150 168
350 353 354 355 347 330 293 232 223 217 213 217 223 223 224 230 236 238 234 236 240 242 245 248 247 245 245 245 243 241 243 244 232 219 217 213 215 222 222 220 219 213 209 216 207 202 204 205 196 186 193 203 205 204 197 192 191 194 203 209 207 209 209 206 211 204 194 190 179 173 191 196 190 188 187 190 193 190 189 187 185 188 177 160 159 173 181 186
3 5 2 2 355 329 263 228 224 217 211 214 220 220 220 226 233 236 237 239 239 239 242 242 242 242 241 241 242 243 240 236 229 218 217 218 217 219 222 225 228 228 224 220 199 191 194 194 182 165 153 181 187 187 185 181 179 185 192 197 201 209 213 213 216 208 197 196 190 182 192 188 185 185 184 184 187 187 185 183 185 191 185 173 174 181 178 181
10 12 8 5 5 352 260 235 234 224 213 213 218 218 217 224 230 232 232 231 229 226 225 228 232 234 235 235 237 239 234 228 224 212 206 206 198 195 203 213 221 227 228 226 214 193 188 193 188 182 179 181 180 189 189 184 184 190 193 195 201 207 212 216 213 205 202 203 198 193 193 184 183 184 183 183 185 186 186 185 186 188 187 184 182 181 179 185
21 25 20 13 13 14 341 256 243 232 218 213 216 215 210 214 221 222 220 218 220 221 220 221 224 224 225 228 228 226 221 217 217 208 198 194 185 179 185 196 202 211 216 220 221 210 195 193 201 205 204 192 181 184 184 182 181 176 176 184 193 198 205 213 212 208 210 207 199 203 208 191 184 184 185 186 187 189 191 189 187 186 187 189 186 183 186 194
32 37 33 32 29 23 13 327 253 226 211 207 210 208 201 200 203 208 207 205 206 211 214 216 218 216 216 219 219 213 210 212 213 205 196 192 190 185 184 190 196 201 201 205 212 208 193 179 191 205 195 184 181 183 179 177 172 157 150 155 162 167 181 198 202 205 210 207 201 210 212 197 187 186 187 188 188 191 194 191 187 187 189 192 190 189 193 200
36 41 39 41 38 32 28 26 32 187 190 190 191 193 191 187 186 189 188 192 198 200 204 205 204 207 207 206 207 202 197 200 202 200 196 193 194 196 197 200 205 210 211 213 220 218 207 199 203 191 160 151 161 166 168 168 154 133 119 114 116 118 119 157 174 180 198 207 214 215 209 200 192 190 190 191 190 192 193 192 190 190 191 192 192 194 200 203
35 42 42 41 37 34 35 41 59 92 145 160 160 164 174 174 172 172 171 176 185 186 191 192 186 195 201 198 200 198 190 188 187 188 193 196 197 199 201 205 208 210 214 220 231 235 221 211 216 217 201 179 159 148 154 163 156 140 124 88 50 42 55 74 104 110 168 200 214 213 206 200 195 192 192 193 192 192 193 193 192 192 193 195 196 200 203 202
32 36 38 35 32 33 34 40 53 73 106 123 124 122 135 147 149 149 148 153 160 159 162 168 161 166 183 192 200 198 188 185 182 181 187 191 194 196 197 201 208 212 214 214 215 222 217 209 214 218 211 203 202 198 187 176 170 169 182 240 309 321 343 355 342 359 321 268 263 210 205 199 195 195 194 193 193 192 193 194 194 194 195 197 200 202 202 201
27 30 34 34 32 31 31 36 45 61 88 102 102 97 100 111 118 123 127 132 138 138 136 139 137 134 139 163 192 191 181 179 176 174 178 179 180 187 191 193 200 205 211 212 209 213 217 211 207 209 211 214 221 225 225 223 224 229 234 240 256 273 286 291 288 294 302 302 292 225 209 203 199 198 197 195 195 194 194 195 196 196 197 199 201 204 204 204
20 24 31 36 39 35 29 31 44 60 74 82 87 88 87 88 92 100 106 108 116 126 128 126 126 129 127 127 146 161 165 172 169 166 171 173 173 182 188 186 187 190 196 203 205 209 216 219 214 211 210 213 218 222 222 225 239 246 241 237 241 252 261 264 263 263 266 272 272 254 233 221 211 203 198 197 197 197 198 199 199 201 203 205 207 209 210 212